ONEWEB-0040 (45147 NORAD) Tracking and Keplerian Element Data

This shows tracking and keplerian element data for the satellite.

Feedback or suggestion? Click here.




ElementValue
Catalog45147
NameONEWEB-0040
Epoch Orbit3853
Epoch Day297.91667824
Epoch Year2020
RAAN86.3657
Inclination87.9518
Eccentricity0.0020955
Argument of Perigee148.0562
Mean Anonmoly62.2101
Mean Motion13.28387529
Decay Rate7.441E-05
L11 45147U 20008S 20297.91667824 .00007441 00000-0 16271-1 0 9998
L22 45147 87.9518 86.3657 0020955 148.0562 62.2101 13.28387529 38532

Live tracking and technical data element details for ONEWEB-0040 (NORAD 45147). ONEWEB-0040 can be tracked NOW for your location showing map with azimuth and elevation plus other details from your city location.

Track the satellite on the map from your city or location and see movement details for azimuth, elevation, latitude, longitude, range, height, and movement on the map or in text.







IsCatalogInMostPopularTable: catalog: 45147, numindb: 65
Update: records affected: 1



GetName: 45147 ONEWEB-0040

Hit Count: updated at: Sat, 24 Oct 2020 23:47:26 GMT